Weather observations for the past three days for
Bridgeport, Bridgeport Municipal Airport
Imperial (Metric)
Date Time (cdt) Wind (mph) Vis. (mi.) Weather Sky Cond. Temperature (ºF) Relative Humidity Wind Chill (°F) Heat Index (°F) Pressure Precipitation (in)
Air Dwpt 6 hour altimeter (in) sea level (mb) 1 hr 3 hr 6 hr
Max. Min.
12 21:15 S 6 10.00 Fair CLR 85.3 65.7 52% 87 30.07 0.0
12 20:55 SE 9 10.00 Fair CLR 86.4 63 46% 87 30.07 0.0
12 20:35 SE 3 10.00 Fair CLR 87.4 62.8 44% 88 30.06 0.0
12 20:15 SE 3 10.00 Fair CLR 88.9 62.2 41% 89 30.06 0.0
12 19:55 S 5 10.00 Fair CLR 90.7 61 37% 91 30.05 0.0
12 19:35 SE 6 10.00 Fair CLR 91.8 60.8 36% 92 30.05 0.0
12 19:15 S 8 10.00 Fair CLR 92.3 60.6 35% 92 30.05 0.0
12 18:55 S 9 10.00 Fair CLR 93.2 60.4 95.5 91.4 34% 93 30.05 0.0
12 18:35 S 9 10.00 Fair CLR 93.6 59.7 32% 93 30.04 0.0
12 18:15 SE 9 10.00 Fair CLR 94.3 58.5 30% 93 30.04 0.0
12 17:55 S 10 10.00 Fair CLR 94.1 59.5 32% 94 30.05 0.0
12 17:35 SE 7 G 16 10.00 Fair CLR 94.6 58.8 30% 94 30.05 0.0
12 17:15 SE 9 10.00 Fair CLR 94.8 60.1 31% 95 30.05 0.0
12 16:55 SE 7 10.00 Fair CLR 95.2 60.3 31% 95 30.05 0.0
12 16:35 SE 8 10.00 Fair CLR 95.5 60.3 31% 96 30.05 0.0
12 16:15 SE 5 10.00 Fair CLR 95 61 32% 95 30.05 0.0
12 15:55 SE 8 10.00 Fair CLR 94.8 62.1 34% 96 30.06 0.0
12 15:35 SE 5 10.00 Fair CLR 94.3 61.9 34% 95 30.06 0.0
12 15:15 SE 9 10.00 Fair CLR 94.1 61.9 34% 95 30.06 0.0
12 14:55 SE 9 10.00 Fair CLR 93.9 62.1 35% 95 30.07 0.0
12 14:35 SE 7 10.00 Fair CLR 93.7 61.5 34% 94 30.07 0.0
12 14:15 SE 6 10.00 Partly Cloudy SCT060 93.6 62.6 36% 95 30.07 0.0
12 13:55 E 5 10.00 Fair CLR 93 63.1 37% 94 30.08 0.0
12 13:35 Calm 10.00 Partly Cloudy SCT060 92.3 63 38% 93 30.09 0.0
12 13:15 SE 7 10.00 Partly Cloudy SCT060 92.5 63.5 38% 94 30.09 0.0
12 12:55 S 7 10.00 Partly Cloudy SCT060 91.2 62.8 92.1 70 39% 92 30.1 0.0
12 12:35 S 12 10.00 Partly Cloudy SCT060 91.9 62.6 38% 93 30.1 0.0
12 12:15 S 6 10.00 Fair CLR 91.4 62.6 38% 92 30.1 0.0
12 11:55 S 7 10.00 Fair CLR 90.5 62.4 39% 91 30.11 0.0
12 11:35 S 9 10.00 Fair CLR 90.5 64.4 42% 92 30.11 0.0
12 11:15 S 8 G 17 10.00 Fair CLR 89.8 64.9 44% 92 30.11 0.0
12 10:55 SW 7 10.00 Fair CLR 88.7 66.2 47% 91 30.11 0.0
12 10:35 S 8 10.00 Fair CLR 88.5 66.9 49% 92 30.1 0.0
12 10:15 S 9 10.00 Fair CLR 87.8 67.3 51% 91 30.1 0.0
12 09:55 SW 8 10.00 Fair CLR 86.9 67.3 52% 90 30.1 0.0
12 09:35 S 8 10.00 Fair CLR 85.8 67.8 55% 89 30.11 0.0
12 09:15 S 7 10.00 Fair CLR 84.2 68.4 59% 88 30.11 0.0
12 08:55 S 6 10.00 Fair CLR 82.4 68.2 62% 85 30.1 0.0
12 08:35 S 6 10.00 Fair CLR 80.8 68.5 66% 84 30.1 0.0
12 08:15 S 5 10.00 Fair CLR 79 68.9 71% 81 30.1 0.0
12 07:55 Calm 10.00 Fair CLR 76.8 68.9 77% 78 30.09 0.0
12 07:35 S 3 10.00 Fair CLR 73.4 68.7 85% 30.08 0.0
12 07:15 SE 3 10.00 Fair CLR 71.1 68.4 91% 30.08 0.0
12 06:55 Calm 10.00 Fair CLR 70 69.4 79.7 69.8 98% 30.08 0.0
12 06:35 Calm 10.00 Fair CLR 69.8 68 94% 30.07 0.0
12 06:15 Calm 10.00 Fair CLR 70 66.9 90% 30.06 0.0
12 05:55 Calm 10.00 Fair CLR 70.2 66.7 89% 30.06 0.0
12 05:35 Calm 10.00 Fair CLR 71.1 65.8 84% 30.05 0.0
12 05:15 Calm 10.00 Fair CLR 71.1 66.2 85% 30.05 0.0
12 04:55 Calm 10.00 Fair CLR 72.3 66.6 82% 30.04 0.0
12 04:35 Calm 10.00 Fair CLR 72.9 66.2 80% 30.03 0.0
12 04:15 Calm 10.00 Fair CLR 74.8 65.3 72% 30.03 0.0
12 03:55 S 3 10.00 Fair CLR 75.7 64.9 69% 77 30.03 0.0
12 03:35 S 5 10.00 Fair CLR 76.5 64.8 67% 78 30.02 0.0
12 03:15 S 5 10.00 Fair CLR 77 64.6 66% 79 30.03 0.0
12 02:55 S 5 10.00 Fair CLR 77.4 64.4 64% 79 30.03 0.0
12 02:35 S 6 10.00 Fair CLR 78.3 64.4 63% 80 30.03 0.0
12 02:15 S 6 10.00 Fair CLR 78.8 64.4 61% 81 30.03 0.0
12 01:55 S 7 10.00 Fair CLR 79 64.4 61% 81 30.03 0.0
12 01:35 S 6 10.00 Fair CLR 78.8 64.6 62% 81 30.04 0.0
12 01:15 S 6 10.00 Fair CLR 79.2 64.6 61% 81 30.04 0.0
12 00:55 S 7 10.00 Fair CLR 79.7 64.6 93.4 79.7 60% 81 30.04 0.0
12 00:35 S 6 10.00 Fair CLR 80.6 64.4 58% 82 30.05 0.0
12 00:15 S 7 10.00 Fair CLR 81.3 64.4 57% 83 30.04 0.0
11 23:55 S 6 10.00 Fair CLR 82.4 64.4 55% 84 30.04 0.0
11 23:35 SE 7 10.00 Fair CLR 83.3 64 52% 85 30.04 0.0
11 23:15 S 8 10.00 Fair CLR 83.7 63.9 51% 85 30.04 0.0
11 22:55 S 8 10.00 Fair CLR 83.7 63.5 51% 85 30.03 0.0
11 22:35 S 8 10.00 Fair CLR 84.2 63.1 49% 85 30.03 0.0
11 22:15 S 8 10.00 Fair CLR 84.7 62.6 47% 86 30.03 0.0
11 21:55 S 8 10.00 Fair CLR 85.5 62.6 46% 86 30.02 0.0
11 21:35 S 6 10.00 Fair CLR 86 62.2 45% 87 30.02 0.0
11 21:15 S 6 10.00 Fair CLR 85.5 63.3 48% 86 30.01 0.0
11 20:55 S 3 10.00 Fair CLR 85.6 64.2 49% 87 30 0.0
11 20:35 S 6 10.00 Fair CLR 87.8 63.5 44% 89 30 0.0
11 20:15 S 5 10.00 Fair CLR 89.6 63.5 42% 91 30 0.0
11 19:55 S 5 10.00 Fair CLR 91 64 41% 93 29.99 0.0
11 19:35 S 5 10.00 Fair CLR 93.2 62.1 36% 94 29.99 0.0
11 19:15 S 3 10.00 Fair CLR 93.2 61.7 35% 94 29.99 0.0
11 18:55 S 3 10.00 Fair CLR 91.6 61.3 97.2 91.6 36% 92 29.99 0.0
11 18:35 SE 5 10.00 Fair CLR 92.3 60.6 35% 92 29.98 0.0
11 18:15 SE 7 10.00 Fair CLR 95 61.3 33% 95 29.98 0.0
11 17:55 S 6 10.00 Fair CLR 93.9 61.2 34% 94 29.99 0.0
11 17:35 S 6 10.00 Fair CLR 96.1 61.7 32% 97 29.99 0.0
11 17:15 SE 7 10.00 Fair CLR 96.8 61.9 32% 98 29.99 0.0
11 16:55 SE 7 10.00 Fair CLR 96.8 58.8 28% 96 29.99 0.0
11 16:35 S 6 10.00 Fair CLR 96.6 58.8 28% 96 30 0.0
11 16:15 SE 8 10.00 Fair CLR 95.9 60.4 31% 96 30 0.0
11 15:55 SE 8 10.00 Partly Cloudy SCT080 SCT120 96.6 61 31% 97 30.01 0.0
11 15:35 S 7 10.00 Fair CLR 96.1 60.3 30% 96 30.02 0.0
11 15:15 S 7 10.00 Partly Cloudy SCT110 95.9 59.5 30% 96 30.02 0.0
11 14:55 SE 6 10.00 Partly Cloudy SCT110 94.6 60.6 32% 95 30.02 0.0
11 14:35 S 6 10.00 Partly Cloudy SCT110 95.9 60.8 31% 96 30.03 0.0
11 14:15 SE 6 10.00 Partly Cloudy SCT110 94.1 60.8 33% 94 30.03 0.0
11 13:55 S 6 10.00 Fair CLR 95 62.1 34% 96 30.04 0.0
11 13:35 S 5 10.00 Fair CLR 94.8 61 32% 95 30.04 0.0
11 13:15 S 5 10.00 Fair CLR 94.1 62.6 35% 95 30.05 0.0
11 12:55 W 6 10.00 Partly Cloudy SCT060 93.2 63.3 93.7 69.4 37% 95 30.06 0.0
11 12:35 W 6 10.00 Partly Cloudy SCT060 93.2 63.7 38% 95 30.06 0.0
11 12:15 SW 6 10.00 Fair CLR 92.5 64.8 40% 95 30.07 0.0
11 11:55 S 8 10.00 Fair CLR 92.5 65.1 40% 95 30.07 0.0
11 11:35 SW 9 10.00 Fair CLR 91.2 66.4 44% 94 30.07 0.0
11 11:15 SW 8 10.00 Fair CLR 90.5 67.3 46% 94 30.07 0.0
11 10:55 W 7 10.00 Fair CLR 89.2 67.1 48% 92 30.07 0.0
11 10:35 SW 7 10.00 Fair CLR 89.1 67.6 49% 93 30.07 0.0
11 10:15 SW 7 10.00 Fair CLR 87.4 66.7 50% 90 30.07 0.0
11 09:55 SW 7 10.00 Fair CLR 87.3 67.3 52% 90 30.08 0.0
11 09:35 SW 7 10.00 Fair CLR 85.5 66.9 54% 88 30.08 0.0
11 09:15 S 5 10.00 Fair CLR 83.5 67.3 58% 86 30.08 0.0
11 08:55 S 3 10.00 Fair CLR 81.5 66.9 61% 84 30.08 0.0
11 08:35 S 3 10.00 Fair CLR 79.2 68 69% 82 30.07 0.0
11 08:15 Calm 10.00 Fair CLR 76.8 67.8 74% 78 30.07 0.0
11 07:55 Calm 10.00 Fair CLR 75 68.5 80% 76 30.07 0.0
11 07:35 Calm 10.00 Fair CLR 72.9 68.5 86% 30.07 0.0
11 07:15 Calm 10.00 Fair CLR 70.3 70.3 100% 30.07 0.0
11 06:55 Calm 10.00 Fair CLR 69.4 69.4 76.3 68.9 100% 30.06 0.0
11 06:35 Calm 10.00 Fair CLR 68.9 68.9 100% 30.05 0.0
11 06:15 Calm 10.00 Fair CLR 69.4 69.4 100% 30.05 0.0
11 05:55 Calm 10.00 Fair CLR 69.4 69.4 100% 30.04 0.0
11 05:35 Calm 10.00 Fair CLR 69.8 69.8 100% 30.03 0.0
11 05:15 Calm 10.00 Fair CLR 70 69.4 98% 30.03 0.0
11 04:55 Calm 10.00 Fair CLR 70.2 69.3 97% 30.03 0.0
11 04:35 E 3 10.00 Fair CLR 69.8 69.8 100% 30.03 0.0
11 04:15 Calm 10.00 Fair CLR 70.2 70 99% 30.03 0.0
11 03:55 Calm 10.00 Fair CLR 70.3 69.3 96% 30.03 0.0
11 03:35 Calm 10.00 Fair CLR 72.1 67.5 85% 30.03 0.0
11 03:15 Calm 10.00 Fair CLR 71.6 67.8 88% 30.03 0.0
11 02:55 Calm 10.00 Fair CLR 72.7 66.6 81% 30.02 0.0
11 02:35 Calm 10.00 Fair CLR 72.9 66.4 80% 30.02 0.0
11 02:15 Calm 10.00 Fair CLR 71.8 67.6 87% 30.03 0.0
11 01:55 Calm 10.00 Fair CLR 72.7 66.9 82% 30.04 0.0
11 01:35 Calm 10.00 Fair CLR 73.2 67.8 83% 30.04 0.0
11 01:15 Calm 10.00 Fair CLR 75.2 66.7 75% 76 30.04 0.0
11 00:55 Calm 10.00 Fair CLR 76.5 65.8 95 76.5 70% 78 30.04 0.0
11 00:35 Calm 10.00 Fair CLR 77.9 65.5 66% 80 30.04 0.0
11 00:15 SE 3 10.00 Fair CLR 79.2 65.3 63% 81 30.04 0.0
10 23:55 S 3 10.00 Fair CLR 80.2 64.8 59% 82 30.04 0.0
10 23:35 SE 5 10.00 Fair CLR 81.3 64.8 57% 83 30.03 0.0
10 23:15 SE 5 10.00 Fair CLR 81.9 64.8 56% 84 30.03 0.0
10 22:55 SE 8 10.00 Fair CLR 82.8 64.8 55% 84 30.02 0.0
10 22:35 SE 10 10.00 Fair CLR 83.1 65.3 55% 85 30.02 0.0
10 22:15 SE 9 10.00 Fair CLR 82.8 66.2 57% 85 30.02 0.0
10 21:55 SE 6 10.00 Fair CLR 83.7 65.8 55% 86 30.01 0.0
10 21:35 SE 7 10.00 Fair CLR 84.2 65.3 53% 86 30 0.0
10 21:15 SE 5 10.00 Fair CLR 83.8 63.7 51% 85 30 0.0
10 20:55 Calm 10.00 Fair CLR 82.2 68.5 63% 85 29.99 0.0
10 20:35 Calm 10.00 Fair CLR 83.1 67.5 59% 86 29.99 0.0
10 20:15 Calm 7.00 Fair CLR 89.2 60.3 38% 89 29.99 0.0
10 19:55 Calm 10.00 Fair CLR 91.6 60.1 35% 91 29.99 0.0
10 19:35 NE 3 10.00 Fair CLR 93.4 58.3 31% 92 29.99 0.0
10 19:15 Calm 10.00 Fair CLR 94.1 58.3 30% 93 29.98 0.0
10 18:55 Calm 10.00 Fair CLR 95 57.7 96.8 92.1 29% 94 29.98 0.0
10 18:35 NE 6 10.00 Fair CLR 95.2 57.7 29% 94 29.98 0.0
10 18:15 NE 8 10.00 Fair CLR 95.4 57.4 28% 94 29.97 0.0
10 17:55 E 6 10.00 Fair CLR 96.1 56.5 27% 95 29.97 0.0
10 17:35 Calm 10.00 Fair CLR 96.1 56.5 27% 95 29.98 0.0
10 17:15 E 5 10.00 Fair CLR 96.4 57 27% 95 29.98 0.0
10 16:55 NE 7 10.00 Fair CLR 96.3 57.4 27% 95 29.98 0.0
10 16:35 N 5 10.00 Fair CLR 96.3 58.6 29% 96 29.98 0.0
10 16:15 N 9 10.00 Partly Cloudy SCT080 96.1 58.6 29% 95 29.99 0.0
10 15:55 Calm 10.00 Partly Cloudy SCT080 95.9 57.2 27% 95 29.99 0.0
10 15:35 W 5 10.00 Fair CLR 95.4 57.9 29% 94 30 0.0
10 15:15 NW 3 10.00 Fair CLR 95.4 59.4 30% 95 30.01 0.0
10 14:55 Calm 10.00 Fair CLR 95 59 30% 94 30.02 0.0
10 14:35 NW 6 10.00 Fair CLR 95 59.2 30% 95 30.02 0.0
10 14:15 W 5 10.00 Partly Cloudy SCT075 93.2 60.1 33% 93 30.03 0.0
10 13:55 Calm 10.00 Partly Cloudy SCT075 94.3 59.9 32% 94 30.03 0.0
10 13:35 N 8 10.00 Fair CLR 94.3 60.3 32% 94 30.04 0.0
10 13:15 NW 5 10.00 Fair CLR 94.3 59.4 31% 94 30.04 0.0
10 12:55 Calm 10.00 Fair CLR 93.6 60.3 94.5 68.5 33% 93 30.05 0.0
10 12:35 Calm 10.00 Partly Cloudy SCT080 93.2 57.9 31% 92 30.05 0.0
10 12:15 Calm 10.00 Partly Cloudy SCT080 93 60.3 34% 93 30.05 0.0
10 11:55 N 3 10.00 Partly Cloudy SCT070 SCT080 91.9 62.8 38% 93 30.06 0.0
10 11:35 N 5 10.00 Fair CLR 91.2 63.7 40% 93 30.06 0.0
10 11:15 W 3 10.00 Fair CLR 90.5 64.8 43% 92 30.07 0.0
10 10:55 W 7 10.00 Fair CLR 89.8 64.8 44% 92 30.07 0.0
10 10:35 W 6 10.00 Fair CLR 88.9 65.8 47% 91 30.07 0.0
10 10:15 SW 8 10.00 Fair CLR 88 66.2 49% 90 30.07 0.0
10 09:55 W 6 10.00 Fair CLR 86.9 66.2 50% 89 30.07 0.0
10 09:35 W 6 10.00 Fair CLR 85.6 67.1 54% 88 30.07 0.0
10 09:15 Calm 10.00 Fair CLR 82.9 68.4 62% 86 30.07 0.0
10 08:55 Calm 10.00 Fair CLR 80.1 69.3 70% 83 30.07 0.0
10 08:35 Calm 10.00 Fair CLR 78.1 68.7 73% 80 30.06 0.0
10 08:15 Calm 10.00 Partly Cloudy SCT090 74.7 69.3 83% 30.06 0.0
10 07:55 Calm 10.00 Fair CLR 72.7 68.7 87% 30.06 0.0
10 07:35 Calm 10.00 Fair CLR 70.7 70.3 99% 30.05 0.0
10 07:15 Calm 10.00 Fair CLR 69.1 69.1 100% 30.05 0.0
10 06:55 Calm 10.00 Fair CLR 68.7 68.7 78.8 68 100% 30.04 0.0
10 06:35 Calm 10.00 Fair CLR 68 68 100% 30.03 0.0
10 06:15 Calm 10.00 Fair CLR 68.4 68.4 100% 30.03 0.0
10 05:55 Calm 10.00 Fair CLR 69.1 68.9 99% 30.03 0.0
10 05:35 Calm 10.00 Fair CLR 69.1 68.2 97% 30.03 0.0
10 05:15 Calm 10.00 Fair CLR 69.1 69.1 100% 30.03 0.0
10 04:55 Calm 10.00 Fair CLR 68.5 68.5 100% 30.03 0.0
10 04:35 Calm 10.00 Fair CLR 68.9 68.9 100% 30.03 0.0
10 04:15 Calm 10.00 Fair CLR 69.3 69.3 100% 30.02 0.0
10 03:55 Calm 10.00 Fair CLR 69.4 65.8 88% 30.03 0.0
10 03:35 Calm 10.00 Fair CLR 70.3 66 86% 30.02 0.0
10 03:15 Calm 10.00 Fair CLR 71.4 65.7 82% 30.03 0.0
10 02:55 Calm 10.00 Fair CLR 72 64.2 77% 30.03 0.0
10 02:35 Calm 10.00 Fair CLR 74.7 63.5 68% 30.03 0.0
10 02:15 Calm 10.00 Fair CLR 76.8 61.5 59% 79 30.02 0.0
10 01:55 S 6 10.00 Fair CLR 77.7 60.8 56% 79 30.02 0.0
10 01:35 S 6 10.00 Fair CLR 78.1 59.9 54% 79 30.02 0.0
10 01:15 S 7 10.00 Fair CLR 78.3 59.9 53% 80 30.02 0.0
10 00:55 S 7 10.00 Fair CLR 78.8 59.9 91 75.6 52% 80 30.03 0.0
10 00:35 S 7 10.00 Fair CLR 78.8 61 54% 80 30.03 0.0
10 00:15 S 7 10.00 Fair CLR 77.9 63 60% 80 30.03 0.0
09 23:55 S 7 10.00 Fair CLR 77.9 63.7 62% 80 30.03 0.0
09 23:35 S 5 10.00 Fair CLR 77.5 64.4 64% 79 30.02 0.0
09 23:15 S 5 10.00 Fair CLR 78.1 64.6 63% 80 30.02 0.0
09 22:55 S 5 10.00 Fair CLR 79.2 63.7 59% 81 30.02 0.0
09 22:35 S 3 10.00 Fair CLR 79.2 64.8 61% 81 30 0.0
09 22:15 SE 3 10.00 Fair CLR 77.4 66.4 69% 79 29.99 0.0
09 21:55 SE 3 10.00 Fair CLR 75.6 68.9 80% 76 29.98 0.0
09 21:35 Calm 10.00 Fair CLR 77.2 68.9 76% 79 29.98 0.0
Date Time (cdt) Wind (mph) Vis. (mi.) Weather Sky Cond. Air Dwpt Max. Min. Relative Humidity Wind Chill (°F) Heat Index (°F) altimeter (in) sea level (mb) 1 hr 3 hr 6 hr
6 hour
Temperature (ºF) Pressure Precipitation (in)